Moffett Field, CA

5:18 AM PST on February 07, 2016 (GMT -0800)
Moffett Federal Air Field

Weather History for KNUQ - September, 2014

Change the Weather History Date:

Monday, September 8, 2014

  Actual Average Record
Temperature  
Mean Temperature 63 °F 68 °F  
Max Temperature 69 °F 78 °F 100 °F (1984)
Min Temperature 56 °F 58 °F 49 °F (1946)
Degree Days  
Heating Degree Days 2    
Month to date heating degree days 2  
Since 1 July heating degree days 2  
Cooling Degree Days 0    
Month to date cooling degree days 29  
Year to date cooling degree days 471  
Growing Degree Days 12 (Base 50)    
Moisture  
Dew Point 52 °F    
Average Humidity 68    
Maximum Humidity 80    
Minimum Humidity 55    
Precipitation  
Precipitation 0.00 in 0.01 in 0.19 in (1985)
Month to date precipitation 0.00 0.02  
Year to date precipitation 5.19 9.68  
Since 1 July precipitation T  
Sea Level Pressure  
Sea Level Pressure 29.91 in    
Wind  
Wind Speed 7 mph (NNW)    
Max Wind Speed 21 mph    
Max Gust Speed 24 mph    
Visibility 10 miles    
Events      
T = Trace of Precipitation, MM = Missing Value Source: NWS Daily Summary

Daily Weather History Graph

Daily Weather History Graph

Search for Another Location

Airport or City:

Trip Planner

Search our weather history database for the weather conditions in past years. The results will help you decide how hot, cold, wet, or windy it might be!

Date:

Astronomy

Sep. 08, 2014 Rise Set
Actual Time 6:44 AM PDT 7:26 PM PDT
Civil Twilight 6:18 AM PDT 7:52 PM PDT
Nautical Twilight 5:46 AM PDT 8:23 PM PDT
Astronomical Twilight 5:14 AM PDT 8:55 PM PDT
Moon 7:11 PM PDT (9/8) 6:15 AM PDT (9/8)
Length of Visible Light 13h 34m
Length of Day
12h 41m
Full, 100% of the Moon is Illuminated
Sep 8
Full
Sep 8
Full
Sep 15
Last Quarter
Sep 23
New
Oct 1
First Quarter

Hourly Weather History & Observations

Time (PDT) Temp. Dew Point Humidity Pressure Visibility Wind Dir Wind Speed Gust Speed Precip Events Conditions
12:39 AM 59.0 °F 53.6 °F 82% 29.86 in 10.0 mi Calm Calm - N/A   Mostly Cloudy
12:56 AM 60.1 °F 53.1 °F 78% 29.87 in 10.0 mi Calm Calm - N/A   Overcast
1:56 AM 61.0 °F 54.0 °F 78% 29.87 in 10.0 mi Calm Calm - N/A   Overcast
2:56 AM 61.0 °F 54.0 °F 78% 29.87 in 10.0 mi North 4.6 mph - N/A   Overcast
3:56 AM 60.1 °F 53.1 °F 78% 29.88 in 10.0 mi WNW 5.8 mph - N/A   Overcast
4:56 AM 60.1 °F 53.1 °F 78% 29.88 in 10.0 mi North 5.8 mph - N/A   Overcast
5:56 AM 59.0 °F 52.0 °F 78% 29.88 in 10.0 mi North 8.1 mph - N/A   Overcast
6:56 AM 60.1 °F 52.0 °F 75% 29.89 in 10.0 mi NNW 5.8 mph - N/A   Overcast
7:56 AM 60.1 °F 52.0 °F 75% 29.91 in 10.0 mi NNW 6.9 mph - N/A   Overcast
8:56 AM 61.0 °F 52.0 °F 72% 29.92 in 10.0 mi NNW 4.6 mph - N/A   Overcast
9:56 AM 63.0 °F 52.0 °F 67% 29.92 in 10.0 mi North 4.6 mph - N/A   Overcast
10:56 AM 64.9 °F 52.0 °F 63% 29.94 in 10.0 mi NNW 6.9 mph - N/A   Mostly Cloudy
11:06 AM 64.4 °F 51.8 °F 64% 29.93 in 10.0 mi North 5.8 mph - N/A   Scattered Clouds
11:56 AM 66.9 °F 52.0 °F 59% 29.93 in 10.0 mi North 9.2 mph - N/A   Clear
12:56 PM 66.9 °F 51.1 °F 57% 29.93 in 10.0 mi NNW 9.2 mph - N/A   Clear
1:56 PM 68.0 °F 52.0 °F 56% 29.92 in 10.0 mi NNW 11.5 mph 19.6 mph N/A   Clear
2:56 PM 68.0 °F 52.0 °F 56% 29.91 in 10.0 mi NNW 16.1 mph - N/A   Clear
3:56 PM 68.0 °F 53.1 °F 59% 29.91 in 10.0 mi NNW 18.4 mph - N/A   Clear
4:56 PM 66.0 °F 53.1 °F 63% 29.90 in 10.0 mi NNW 13.8 mph - N/A   Clear
5:56 PM 66.0 °F 53.1 °F 63% 29.90 in 10.0 mi NNW 17.3 mph 21.9 mph N/A   Clear
6:56 PM 63.0 °F 54.0 °F 72% 29.91 in 10.0 mi NNW 12.7 mph - N/A   Clear
7:56 PM 61.0 °F 53.1 °F 75% 29.92 in 10.0 mi NNW 5.8 mph - N/A   Clear
8:56 PM 60.1 °F 52.0 °F 75% 29.94 in 10.0 mi Calm Calm - N/A   Clear
9:56 PM 59.0 °F 51.1 °F 75% 29.96 in 10.0 mi NNW 4.6 mph - N/A   Clear
10:56 PM 57.9 °F 51.1 °F 78% 29.96 in 10.0 mi Calm Calm - N/A   Clear
11:56 PM 57.9 °F 51.1 °F 78% 29.98 in 10.0 mi Calm Calm - N/A   Clear